Theta_e
353 352 352 351 351 352 352 351 351 350 350 351 351 351 351 350 348 349 350 348 340 331 332 338 339 338 343 346 344 342 343 344 345 344 345 345 349 349 343 343 346 343 344 344 344 344 348 353 350 348 352 349 347 352 350 347 346 346 346 345 350 349 345 346 347 345 344 344 344 343 343 344 343 345 345 344 344 344 344 344 343 344 343 344 347
353 352 353 352 352 352 352 352 351 351 351 351 352 352 351 351 348 347 349 348 343 332 328 334 339 340 341 344 344 342 342 342 342 342 342 344 346 345 343 344 344 344 344 344 344 344 344 350 348 345 351 350 346 351 347 343 348 349 346 347 350 349 344 344 345 344 344 344 344 344 343 343 342 343 344 343 344 343 343 343 343 343 342 343 346
353 353 353 352 353 353 352 353 352 351 352 351 353 353 351 352 349 343 342 346 344 334 327 330 337 340 341 342 341 341 342 341 341 341 340 343 343 338 340 345 345 343 345 344 344 345 343 345 348 346 348 345 348 355 349 344 349 349 348 350 350 348 344 343 344 344 344 343 343 343 342 342 342 343 343 342 342 341 342 342 342 342 342 342 344
354 354 352 353 353 354 353 354 353 352 353 352 353 354 350 351 348 337 334 340 340 333 328 328 333 340 341 342 341 339 342 342 342 342 339 342 344 339 337 342 346 344 344 345 344 344 343 343 348 348 345 343 348 353 349 347 348 348 350 351 350 349 344 343 344 344 343 343 344 343 339 341 343 343 342 342 341 340 341 341 340 341 341 342 343
354 354 353 352 352 354 355 355 354 353 353 353 354 354 350 348 341 332 329 332 334 332 328 329 331 334 337 341 343 340 343 344 343 343 342 340 343 343 338 337 343 346 344 345 346 344 343 343 345 345 345 344 345 348 349 351 350 350 350 349 349 350 346 344 343 344 343 343 345 342 340 342 342 342 342 340 340 339 340 340 340 341 341 341 342
354 355 354 353 354 355 356 356 355 353 354 354 353 353 351 346 336 328 327 327 330 330 327 328 330 329 330 335 339 339 342 347 345 343 343 340 340 343 343 338 337 344 347 345 346 345 343 343 345 346 346 346 345 348 350 351 351 352 351 350 351 351 349 346 343 344 344 342 343 343 343 343 341 340 341 340 341 340 339 341 340 341 341 341 342
354 354 353 353 354 356 356 356 355 353 354 354 353 353 353 348 336 328 327 326 328 329 326 327 328 327 327 328 331 332 336 341 341 340 341 342 340 340 344 344 338 343 349 347 345 345 344 344 345 345 347 348 346 346 349 352 352 353 353 353 350 348 348 346 344 344 343 342 343 342 341 342 341 341 342 341 342 341 339 340 340 339 339 341 342
355 354 354 354 355 356 356 356 356 354 354 354 354 353 354 351 340 329 327 326 327 327 325 326 327 326 327 327 328 329 332 336 334 335 339 341 342 339 341 346 341 340 349 349 345 345 345 344 344 344 346 349 347 345 349 354 353 350 350 349 347 346 346 347 346 344 343 343 343 342 340 339 340 341 341 342 343 341 339 338 339 338 337 339 340
355 354 354 355 355 356 356 356 356 355 354 354 353 353 355 354 347 335 329 327 327 326 325 326 325 326 326 326 327 327 332 338 335 333 336 339 344 343 341 347 346 340 345 348 345 346 346 344 345 343 343 347 348 348 351 353 351 348 346 347 346 346 347 346 344 344 345 345 342 342 343 340 340 341 339 341 341 341 342 339 338 339 339 339 339
355 354 354 356 356 356 357 357 356 356 354 354 354 354 355 356 350 340 334 329 327 326 326 325 326 325 326 325 325 325 328 337 341 340 337 335 338 341 339 344 348 346 345 344 343 345 347 345 345 344 344 347 348 350 353 352 349 347 346 347 348 347 347 347 345 345 345 346 345 343 344 344 343 342 341 341 341 341 342 339 338 340 340 341 341
355 355 356 357 356 356 357 358 357 356 355 354 355 354 355 357 353 344 338 335 331 329 328 326 326 326 326 325 325 326 326 331 340 345 344 335 330 334 334 336 344 349 351 348 343 343 346 347 346 345 346 348 347 347 351 352 350 349 348 348 348 348 347 347 348 348 345 345 346 345 345 344 344 343 343 343 341 342 343 341 341 341 341 341 342
356 356 356 356 355 357 358 359 358 357 356 355 356 355 356 358 355 347 341 338 335 333 331 330 329 327 327 327 325 325 326 326 331 341 345 337 330 331 332 333 337 345 351 351 349 347 345 346 347 347 347 348 346 345 348 351 352 352 351 349 348 348 349 348 349 351 349 345 345 346 345 345 345 344 343 343 342 343 345 344 343 343 342 341 343
353 355 355 356 357 358 359 359 359 358 356 356 356 356 357 358 357 349 341 338 336 336 335 334 333 332 331 330 329 328 327 327 327 333 341 338 335 334 333 334 334 337 346 351 352 352 348 344 346 347 347 346 346 345 347 350 350 353 354 350 349 349 350 349 348 351 353 349 346 347 345 344 345 344 343 343 344 344 344 344 344 344 344 344 344
351 353 353 355 356 358 359 360 360 359 357 357 357 357 357 359 358 352 343 339 337 337 337 337 336 336 335 334 334 332 331 331 330 334 343 343 340 339 337 338 337 334 341 346 349 353 352 346 344 345 346 346 346 346 347 347 346 350 352 350 351 351 350 350 349 351 354 352 349 348 346 345 345 344 344 343 343 344 344 345 346 346 346 345 346
351 352 353 354 356 359 360 361 361 361 359 358 358 358 358 359 359 354 347 342 339 337 337 337 337 336 337 336 336 336 335 335 334 337 345 347 345 343 339 341 345 341 340 344 346 350 353 348 343 344 345 346 346 346 347 347 345 347 347 348 350 352 350 349 350 353 354 353 352 351 348 347 347 345 345 344 344 344 344 346 347 347 347 346 346
352 354 353 353 356 359 361 361 361 361 360 359 359 359 359 360 360 356 349 343 340 339 338 338 337 337 338 338 337 338 338 338 338 338 341 345 346 345 340 337 345 348 347 347 347 345 347 346 341 342 345 345 347 345 346 348 347 347 347 345 347 351 350 348 350 353 354 354 354 353 350 349 350 348 348 347 347 346 347 347 346 346 347 348 348
351 352 350 351 354 357 360 362 361 362 361 359 359 359 360 360 361 357 352 346 342 340 340 339 339 338 338 339 338 340 340 340 342 339 339 344 344 343 343 337 340 349 351 350 349 344 340 339 339 342 344 344 345 346 345 347 347 347 347 345 345 349 349 348 349 352 354 355 354 354 351 350 350 350 350 350 349 347 344 344 345 344 343 345 349
351 352 351 352 355 356 360 361 361 362 361 361 360 360 360 360 361 358 353 349 344 341 341 340 340 340 340 340 340 341 342 342 345 344 342 346 345 341 344 344 340 345 350 351 352 345 338 338 339 341 343 341 342 346 346 346 347 346 346 345 344 347 348 346 346 349 353 354 355 355 354 351 351 351 350 352 351 346 338 339 345 344 340 338 342
350 352 353 355 355 356 361 361 361 362 362 362 361 360 361 361 361 360 355 349 346 344 343 341 341 341 341 341 341 343 343 343 347 350 348 350 350 345 345 348 346 346 349 351 350 344 337 339 339 339 342 342 339 342 345 346 347 345 344 346 345 344 345 344 344 346 349 352 353 354 354 354 354 353 352 353 354 351 344 344 349 348 342 338 338
348 350 353 356 355 354 358 360 360 362 362 362 362 361 361 361 361 362 360 357 353 348 345 342 342 342 341 343 343 343 344 345 345 350 352 352 351 348 346 349 351 350 350 350 347 342 339 340 340 341 347 347 340 339 343 345 346 345 344 348 349 346 342 341 343 344 348 351 351 349 350 352 353 351 350 350 354 354 348 346 351 350 345 342 339
347 349 350 353 354 354 355 358 359 361 362 362 362 361 361 361 362 362 362 361 357 353 348 344 342 343 342 343 345 344 345 347 346 346 351 351 348 347 347 349 352 353 352 350 344 341 341 339 339 343 348 351 345 340 342 343 343 344 344 345 350 349 344 340 339 340 345 350 350 346 345 347 349 349 347 349 354 354 349 347 349 350 350 350 349
344 348 349 350 351 351 352 355 357 359 362 362 362 362 361 362 362 362 362 361 359 358 353 345 342 344 344 344 345 346 344 346 347 347 348 348 345 343 345 349 352 353 354 353 346 341 342 341 342 344 346 351 350 342 342 344 342 342 342 343 347 348 343 340 339 336 337 343 345 343 342 343 345 346 345 349 354 355 353 353 352 353 355 356 355
342 346 347 348 349 350 352 354 356 358 361 361 361 362 362 362 362 362 362 361 360 360 357 349 344 344 345 345 345 347 345 344 348 351 350 349 348 346 345 348 352 353 353 354 350 345 343 340 342 346 344 347 349 342 339 344 343 339 340 342 346 346 342 340 339 336 333 336 338 339 340 343 346 348 347 347 352 354 354 355 355 355 357 357 357
339 341 344 346 348 353 355 354 356 359 361 361 361 362 361 362 362 362 362 361 360 361 361 355 347 344 345 347 346 347 348 348 352 355 354 353 354 352 350 349 351 353 353 354 353 352 348 339 337 343 342 341 344 341 337 340 342 339 338 340 343 345 342 340 339 338 337 336 336 339 343 346 349 351 350 346 348 353 353 354 354 354 353 352 351
340 340 342 344 347 352 355 356 358 359 360 361 361 362 361 361 362 361 361 361 360 360 361 359 353 349 349 347 346 350 352 352 353 356 356 355 355 355 354 352 350 352 354 354 354 354 353 345 336 338 339 337 338 338 335 337 341 340 337 336 340 341 340 340 339 338 340 339 339 342 345 348 351 351 349 347 349 353 354 353 353 354 354 351 345
339 340 341 342 346 350 353 356 358 359 359 361 361 361 362 360 361 362 360 361 361 359 360 361 359 357 353 350 349 351 354 353 353 355 356 355 355 354 355 354 352 352 353 354 354 353 352 349 339 336 337 336 336 335 335 337 342 345 342 337 339 339 335 337 338 338 339 339 338 339 344 349 352 353 352 352 354 354 353 353 351 350 351 351 345
342 344 343 342 344 346 349 354 359 360 358 361 361 361 361 361 361 361 361 360 361 359 359 361 361 360 357 353 351 351 353 355 355 354 355 356 355 354 354 355 355 354 353 353 355 354 351 347 340 336 336 336 335 335 335 334 339 347 348 344 342 343 339 336 335 337 340 343 342 340 341 345 347 349 350 351 354 353 351 349 348 343 341 342 342
347 349 349 349 348 349 354 357 360 360 358 359 361 360 360 361 361 361 361 360 360 359 359 361 361 361 358 354 352 351 350 354 356 355 354 356 356 354 353 355 356 356 354 353 354 355 352 346 340 337 336 336 335 335 335 334 334 340 347 348 344 345 346 343 339 337 339 344 348 347 347 349 348 348 344 343 349 354 352 348 344 340 338 340 341
342 345 349 351 353 355 360 362 360 360 359 358 359 360 359 361 361 361 361 360 360 359 359 361 361 360 356 353 354 353 350 351 355 355 354 356 356 354 353 354 355 357 355 354 354 355 355 350 343 338 336 337 335 334 334 335 334 334 340 346 345 341 344 348 349 345 342 344 346 348 351 352 351 351 349 343 340 345 347 347 347 343 340 339 339
342 346 349 349 352 355 360 363 362 360 359 358 358 360 360 360 361 361 361 360 360 360 360 362 361 359 357 355 354 355 353 350 352 354 353 354 356 356 354 353 356 357 355 354 354 354 356 355 350 343 337 336 336 335 333 333 334 333 334 340 343 338 336 342 347 348 346 347 346 344 347 349 349 351 351 344 334 331 333 336 340 341 337 335 335
346 351 353 352 351 353 357 363 363 360 359 358 358 359 359 359 360 360 360 360 360 361 361 362 361 360 360 358 355 355 354 350 350 352 351 351 355 357 355 354 356 357 356 354 353 354 356 356 356 351 344 339 336 336 334 332 332 333 332 333 337 337 333 333 337 339 340 343 344 345 346 349 349 349 344 336 331 330 330 330 331 332 332 331 331
345 350 354 354 352 353 355 359 361 361 359 357 358 360 360 359 359 359 359 359 360 362 361 362 364 363 362 359 355 354 354 351 350 349 348 349 354 357 357 356 358 359 356 353 352 354 355 356 358 357 353 347 342 338 335 333 331 332 332 332 333 335 335 334 334 335 335 334 336 340 345 349 351 350 341 331 328 329 329 329 330 330 330 330 330
346 349 354 355 356 356 357 358 359 361 360 357 357 359 360 359 358 359 359 359 360 362 362 362 364 365 364 360 356 355 354 352 349 348 346 346 350 355 357 357 359 360 357 349 347 349 352 354 355 359 358 355 351 346 338 333 332 331 331 332 333 334 337 341 342 340 337 333 328 330 337 342 347 350 344 334 329 328 328 328 329 329 329 329 329
348 351 354 356 359 362 362 360 359 358 359 358 356 358 359 359 358 359 359 359 360 361 362 363 364 366 365 362 358 356 354 351 350 349 347 346 346 350 354 356 359 360 354 347 345 347 349 348 350 357 360 358 356 353 345 336 332 332 331 332 333 334 337 344 350 351 347 340 333 328 329 331 334 338 338 331 328 328 328 327 328 328 328 329 329
348 350 351 354 358 362 363 362 360 359 357 358 358 358 358 359 358 359 360 359 359 361 363 364 364 366 366 363 360 358 355 353 351 349 347 345 345 346 350 354 359 359 354 346 344 348 348 345 345 352 358 358 355 355 353 345 335 331 331 331 331 333 334 338 345 350 350 344 337 332 329 328 328 329 330 329 328 329 329 329 328 328 327 327 328
346 348 349 351 355 360 362 362 363 362 359 357 357 357 357 358 358 359 360 360 359 361 363 364 365 366 367 365 362 359 357 355 351 350 348 346 345 346 347 350 356 360 359 352 347 350 352 348 344 346 352 356 354 354 354 349 338 332 332 331 331 331 331 332 334 338 339 337 334 332 329 327 327 327 327 327 327 329 330 331 331 330 330 333 337
343 346 349 349 352 357 361 362 363 363 360 355 355 356 356 357 358 359 359 360 360 360 363 364 365 366 367 366 363 360 358 356 353 350 348 346 345 346 346 347 352 357 361 359 353 352 354 352 348 344 345 351 353 351 348 343 337 333 331 331 331 330 330 331 331 332 332 331 330 330 330 329 327 326 326 326 327 328 328 329 331 330 330 335 341
344 348 349 348 350 357 361 361 363 362 358 353 354 356 357 357 358 358 359 360 361 361 363 364 366 366 367 366 365 362 359 357 354 350 348 347 346 346 346 346 349 353 358 361 359 357 357 357 354 347 342 345 350 350 344 338 336 334 332 331 331 331 331 331 330 331 331 331 330 329 328 328 327 326 326 326 326 327 327 327 329 330 333 337 341
347 350 351 350 352 357 360 360 361 359 355 352 352 356 357 357 357 358 359 361 361 361 364 365 366 367 367 366 366 363 359 356 354 350 349 349 346 347 347 346 347 351 356 359 360 360 360 360 358 355 349 343 347 350 347 342 338 335 334 334 335 334 333 332 331 332 331 331 331 330 328 328 326 326 326 326 326 326 327 329 330 332 336 341 346
349 351 351 352 355 357 359 359 358 357 354 350 350 356 358 357 358 359 359 361 362 361 364 366 366 367 367 365 363 362 358 356 354 351 351 352 350 349 350 348 347 350 355 358 358 360 360 360 360 360 356 349 346 348 348 345 340 338 337 338 338 338 337 335 333 333 334 333 331 330 329 327 327 327 327 326 327 327 328 330 333 335 340 344 349
348 352 352 353 356 357 358 359 359 356 353 349 351 356 358 358 359 360 360 361 362 363 365 367 367 367 367 365 362 360 358 357 354 352 354 354 353 352 351 348 348 353 357 358 358 358 359 360 359 359 360 357 353 349 347 344 341 340 339 339 341 342 341 339 337 335 336 337 337 334 331 328 327 327 327 327 327 329 330 332 334 336 338 341 345
349 353 353 355 357 357 357 359 358 355 352 351 353 355 357 359 359 359 361 361 363 364 366 367 367 366 366 367 365 361 359 357 355 354 355 355 355 354 353 351 352 357 359 359 359 358 358 359 359 358 359 361 358 355 352 348 344 342 342 342 343 345 344 343 343 341 339 341 343 343 341 338 333 329 329 329 330 332 332 333 334 335 336 338 340
348 351 352 355 357 357 358 360 357 353 353 353 354 355 357 359 359 359 360 361 363 365 367 367 367 366 367 368 366 362 358 358 357 354 354 355 355 355 355 352 354 359 361 361 362 361 360 360 360 359 359 361 362 361 357 353 349 347 346 346 347 348 349 348 348 347 347 348 350 352 351 348 344 341 337 334 336 337 335 335 335 337 340 341 342
346 350 353 355 357 358 361 361 357 354 353 354 354 355 357 359 359 360 360 362 364 365 367 368 366 366 367 368 366 361 357 356 356 354 352 354 354 354 355 355 354 357 362 364 364 362 362 360 360 360 360 360 362 363 361 358 354 351 350 350 350 352 353 353 353 354 354 355 357 358 356 354 354 352 347 342 341 343 341 340 341 342 343 344 346
345 350 353 355 358 359 360 361 358 355 354 354 354 356 358 359 360 361 361 363 365 366 367 368 367 366 367 367 365 361 357 357 359 356 353 353 352 354 355 356 355 357 361 364 364 363 363 362 361 361 361 361 362 363 362 359 358 356 353 353 353 354 356 356 355 356 357 358 360 359 358 358 358 357 355 351 349 348 347 347 347 347 348 349 350
345 350 353 355 358 357 358 360 361 356 354 355 356 358 360 360 361 363 362 363 365 366 368 368 367 366 366 365 364 363 361 362 363 361 357 354 353 354 356 355 357 360 362 363 363 363 363 363 362 363 363 362 363 363 363 361 360 360 358 357 357 356 357 358 358 357 357 358 358 358 358 358 358 358 358 356 353 351 351 351 351 351 351 352 353
344 348 352 356 358 358 359 361 362 361 358 357 357 358 361 362 363 363 362 363 365 367 368 368 367 366 366 365 364 364 363 364 365 364 362 359 357 358 359 358 360 362 362 362 363 363 363 363 363 363 363 363 363 364 363 364 363 362 361 361 360 359 358 358 359 359 358 358 358 358 357 356 356 357 357 356 354 353 352 352 352 353 353 354 356
343 347 351 355 357 359 360 361 363 364 363 361 360 361 362 364 365 363 362 364 367 367 367 368 368 367 366 365 365 364 364 365 365 364 364 363 362 362 361 361 361 362 362 363 363 363 363 363 363 364 364 364 364 364 364 364 363 363 363 363 362 361 360 360 360 359 359 359 358 358 358 357 356 355 355 355 354 353 353 353 353 354 355 356 357
341 345 348 352 355 357 359 360 361 363 364 364 363 363 364 364 364 363 362 365 368 367 368 368 368 367 366 366 366 365 365 365 366 364 363 364 363 363 363 364 363 362 362 363 363 364 364 363 363 364 364 365 365 365 364 364 364 364 365 365 364 362 361 361 361 360 360 360 359 359 359 358 357 356 356 355 354 354 354 354 354 355 356 356 357
339 343 345 349 353 355 356 358 358 359 362 363 364 364 365 365 364 363 363 366 367 367 367 368 368 368 367 366 365 364 364 365 366 364 362 363 364 363 363 365 364 361 361 362 363 363 364 363 363 363 363 364 365 365 364 364 364 365 365 366 365 364 362 361 361 361 361 360 360 359 359 358 357 357 356 355 356 355 355 354 355 355 356 356 356
336 341 343 347 350 353 355 356 357 358 359 361 363 364 364 365 365 364 364 365 366 366 367 367 367 366 366 365 364 363 364 366 366 364 362 362 364 363 363 364 364 362 360 360 362 363 363 363 363 364 363 363 364 364 364 365 365 365 366 365 365 365 363 362 362 361 361 360 359 358 358 358 357 356 356 356 356 356 355 355 354 354 354 354 355
Wind_Speed
27 29 31 32 30 30 30 29 30 29 29 29 30 30 29 28 29 27 27 27 29 31 29 26 23 21 19 16 14 14 13 11 10 9 7 7 8 8 8 8 8 8 7 6 5 4 2 1 1 1 2 2 3 3 3 3 5 7 6 7 6 5 5 5 6 7 6 6 6 5 5 5 5 5 4 3 3 3 3 3 3 2 2 2 3
25 29 31 32 31 31 30 30 32 31 30 31 31 32 31 29 31 31 29 28 30 32 32 28 25 23 21 17 15 13 13 13 11 10 8 8 10 9 8 8 8 8 8 7 5 4 3 3 3 1 2 1 3 3 2 4 5 4 5 5 6 7 6 6 7 7 6 6 6 5 5 5 3 3 3 2 2 3 2 2 3 3 3 3 2
25 29 31 32 32 32 32 31 33 33 31 32 32 32 33 30 31 34 34 31 31 33 33 31 27 23 20 18 15 13 13 13 11 10 10 8 9 9 8 9 9 9 8 8 6 5 4 4 3 2 3 1 4 2 0 3 4 4 3 3 6 7 6 6 7 5 5 5 5 5 5 5 4 3 2 2 3 3 2 2 3 3 4 3 2
27 29 32 33 33 33 33 32 33 33 32 33 33 33 34 33 33 36 38 35 33 34 34 32 28 25 21 18 16 13 12 13 12 10 11 10 8 9 9 9 9 9 9 8 7 6 6 5 4 3 3 0 3 1 1 3 4 4 4 3 4 7 6 6 6 5 5 5 5 3 3 5 5 6 5 3 4 3 3 2 2 3 3 2 3
27 29 33 35 36 35 34 33 34 34 34 34 35 34 35 36 36 38 38 38 36 36 35 33 30 28 25 20 17 15 12 13 14 12 12 12 10 9 10 9 9 9 9 8 8 7 7 6 6 5 3 1 1 1 0 3 3 3 3 3 3 6 7 5 5 5 4 5 5 2 2 3 2 5 6 3 4 3 3 2 2 3 3 1 2
28 29 33 34 36 36 35 34 34 35 35 35 35 34 34 36 39 39 39 39 38 37 37 35 33 32 30 25 22 21 17 16 16 14 12 12 12 10 10 10 9 9 9 9 9 8 8 7 7 6 4 3 2 2 1 2 3 3 3 3 3 4 7 6 6 5 3 5 5 3 3 3 4 4 4 3 4 1 2 4 3 3 4 2 1
30 31 33 34 35 36 36 36 36 36 35 34 34 34 34 36 40 41 40 40 39 39 38 37 36 34 33 30 27 26 23 21 19 15 13 12 11 11 11 11 10 10 10 10 10 9 8 8 7 6 5 4 3 3 3 2 2 3 3 3 3 5 7 7 6 5 4 4 4 3 3 0 2 2 3 3 3 1 1 3 4 3 3 3 1
30 31 33 34 36 37 38 37 36 35 35 34 34 34 34 36 40 42 41 41 40 40 40 38 38 36 34 33 30 28 26 23 22 18 14 12 12 12 12 12 12 11 11 11 10 10 9 8 8 7 6 5 4 3 2 1 2 3 3 4 3 4 6 7 7 5 3 4 4 5 3 1 4 3 1 2 2 3 4 4 5 2 1 2 2
31 32 34 36 37 38 39 38 36 35 34 35 35 35 35 35 39 42 42 42 41 41 40 39 38 37 35 34 32 30 26 21 21 21 18 15 13 13 13 13 12 12 12 12 11 10 10 9 9 8 7 7 5 4 3 4 4 3 3 3 3 4 4 5 7 7 4 4 5 6 4 3 4 3 3 3 1 1 4 4 5 2 1 3 1
32 34 35 36 36 37 38 37 36 35 34 35 34 34 35 35 39 42 43 43 43 42 41 39 38 37 36 35 33 32 29 22 18 18 20 19 17 16 15 15 14 13 13 14 12 11 11 10 9 9 8 8 7 6 6 6 5 4 4 4 3 4 4 3 5 7 5 4 4 6 6 5 5 4 4 4 2 1 1 2 2 2 3 4 1
29 31 32 34 35 36 36 36 36 35 33 33 33 33 35 36 39 43 43 43 43 43 42 40 39 38 37 36 34 33 31 27 22 18 19 22 21 19 18 17 16 14 14 14 14 13 12 11 10 10 9 9 9 8 8 6 5 4 4 5 4 4 4 4 4 5 6 6 5 5 6 6 5 4 3 3 3 2 3 3 2 5 3 1 1
25 27 29 32 35 35 35 35 36 35 34 34 34 34 35 36 39 42 43 43 44 44 43 41 40 40 38 37 35 34 33 31 28 24 22 24 24 21 20 19 18 16 15 14 15 15 14 12 11 11 10 10 10 9 8 8 7 6 5 5 5 5 5 4 4 5 5 6 5 5 5 5 5 4 3 3 3 2 2 3 4 4 2 2 2
27 29 31 33 35 36 36 36 36 36 36 36 35 35 35 36 39 42 44 43 44 44 43 42 41 40 39 38 36 36 34 33 32 28 26 26 25 23 22 21 21 19 17 16 15 15 15 15 13 12 12 11 11 10 9 10 9 8 8 7 6 5 5 5 5 5 5 5 5 5 5 4 4 4 3 4 3 3 3 3 4 3 3 3 2
30 32 33 34 36 37 36 37 37 38 37 37 37 36 36 36 39 42 43 43 44 44 43 43 42 41 39 38 37 36 35 34 33 30 27 26 26 24 23 22 22 21 20 19 17 16 16 16 15 14 13 12 11 11 10 10 10 10 9 9 7 6 6 6 5 5 6 6 5 5 5 4 4 4 4 4 3 4 3 3 4 4 4 3 3
33 31 32 33 36 36 36 37 38 38 38 37 37 37 37 37 39 42 43 43 43 43 43 43 42 41 39 38 37 36 35 34 33 31 28 27 26 25 24 22 21 21 21 20 19 18 17 17 16 15 14 13 12 12 11 10 10 10 10 9 9 8 7 7 6 6 7 7 6 6 5 5 4 4 4 4 4 4 4 3 3 4 4 4 3
34 33 32 32 33 33 34 36 37 38 39 38 38 38 38 37 39 42 43 43 43 42 43 43 42 41 40 39 38 36 35 34 34 33 31 29 27 26 26 25 22 19 20 20 20 20 19 18 16 15 15 14 13 13 12 11 11 10 10 9 9 9 9 7 7 7 7 8 7 7 6 5 5 5 5 4 5 5 4 4 4 3 4 4 3
34 33 32 32 33 33 34 35 36 37 38 39 39 40 40 39 40 42 43 43 43 42 42 42 42 41 40 39 38 37 36 35 34 34 32 30 29 28 26 26 24 21 19 20 21 21 21 19 17 16 16 16 15 14 14 13 12 11 10 10 9 10 10 9 8 8 8 8 7 7 7 6 6 7 6 5 6 7 6 5 5 5 5 5 4
33 33 32 34 35 35 34 35 36 37 39 40 41 41 41 40 40 42 43 43 43 43 42 42 41 41 41 40 39 38 37 36 33 33 32 30 30 30 28 26 26 24 21 20 21 22 21 20 19 19 18 17 16 15 15 14 13 12 11 11 10 10 10 10 9 9 9 8 8 8 8 7 7 7 6 6 7 9 7 5 6 6 7 7 6
30 31 30 31 33 33 33 34 35 37 39 40 41 41 40 40 39 40 42 42 42 42 42 42 42 41 41 40 40 39 38 36 33 31 31 30 30 30 29 26 25 25 24 23 23 23 22 21 21 20 19 18 18 17 16 15 15 14 13 12 12 11 11 10 10 10 10 9 9 10 9 9 8 8 7 7 8 9 7 5 6 7 8 8 8
28 31 29 28 29 30 32 33 35 36 37 38 39 39 39 39 39 38 38 39 40 41 42 43 42 41 41 41 40 40 38 37 35 33 31 31 30 29 28 26 25 25 25 25 26 24 23 23 22 21 20 19 19 18 18 17 16 15 15 13 13 13 12 12 12 11 10 10 11 11 10 10 10 9 9 8 9 10 9 7 8 9 9 10 9
26 29 29 28 29 30 30 31 33 34 36 36 37 39 39 39 38 38 38 38 39 41 41 43 43 42 42 42 42 41 39 37 36 35 33 31 31 30 28 27 25 24 25 26 28 26 24 24 23 22 21 20 20 20 19 19 18 17 16 15 14 14 13 13 13 13 12 12 12 12 11 11 11 10 10 10 9 10 11 9 9 10 10 10 11
26 28 29 27 29 31 31 32 31 32 34 35 36 38 38 38 38 38 38 38 39 39 40 43 43 43 44 43 42 42 40 38 36 35 34 33 33 32 30 27 25 25 25 26 28 28 26 26 24 23 22 21 21 21 21 20 20 18 18 17 16 16 15 14 14 14 13 13 13 12 11 11 12 12 12 11 10 10 11 11 11 11 11 11 11
28 28 29 28 29 31 33 35 33 32 34 35 36 37 38 39 38 38 39 39 38 38 39 42 43 43 44 43 42 42 40 39 37 35 34 33 32 32 31 29 27 26 26 26 27 28 28 28 26 24 24 23 23 23 22 21 21 20 19 18 17 17 17 16 16 15 14 13 13 13 13 13 13 13 13 12 11 11 11 12 12 12 12 12 12
28 28 30 32 32 31 33 36 34 33 34 35 36 36 37 38 38 38 39 39 38 37 37 40 43 43 43 42 42 41 39 38 36 34 33 32 30 30 31 31 29 27 26 27 27 26 27 29 29 27 27 26 25 25 24 22 22 21 21 20 19 18 18 17 17 16 15 14 13 14 14 14 13 14 14 14 13 13 13 13 13 14 14 15 14
25 26 29 33 33 31 33 35 35 34 34 35 36 36 36 37 38 39 39 38 38 37 37 38 41 42 42 42 42 40 38 38 37 34 33 32 30 29 30 31 31 29 27 27 28 27 28 30 31 30 29 28 27 27 25 24 24 23 23 22 21 20 20 19 18 17 16 15 14 15 15 14 14 15 15 15 14 14 14 14 14 14 15 16 16
25 25 26 28 31 32 33 34 36 35 34 35 36 36 36 37 38 38 37 38 38 37 37 37 38 39 41 43 42 40 39 38 38 35 33 32 31 30 29 30 31 30 28 27 28 29 30 31 32 31 31 31 29 28 27 26 24 23 23 23 22 22 22 20 19 18 18 17 16 16 16 16 16 16 16 15 15 15 15 15 15 15 15 16 17
19 19 19 22 28 31 31 32 36 35 33 35 36 36 35 36 37 37 36 37 38 38 38 38 37 38 40 42 43 42 40 38 38 36 33 32 32 31 30 30 30 30 30 28 28 29 31 32 33 32 32 32 31 29 29 28 26 24 23 23 22 21 21 21 20 19 18 18 18 18 18 18 18 18 17 17 16 16 16 16 16 15 15 16 17
9 9 10 13 21 27 29 31 33 33 32 33 33 34 34 34 35 35 35 36 38 39 40 39 38 38 40 43 43 42 42 39 38 37 34 32 32 31 30 29 28 29 30 30 29 29 31 33 33 33 32 32 32 31 30 30 29 27 24 23 23 22 21 21 20 20 19 19 18 18 18 19 19 19 19 18 17 17 17 16 17 16 16 17 17
7 7 8 11 16 21 26 29 31 31 31 32 31 32 33 32 33 34 34 35 37 39 40 40 40 40 42 43 42 41 43 41 38 38 36 34 33 32 32 30 30 29 29 30 29 28 29 32 33 33 32 32 32 32 32 32 31 30 27 25 24 24 23 21 20 20 20 20 20 19 19 19 19 19 20 19 18 17 17 17 17 17 18 18 19
4 3 1 7 12 17 21 25 28 29 29 30 30 32 33 33 34 34 34 35 36 38 40 40 41 42 42 42 41 40 42 42 40 39 39 37 34 33 33 33 32 31 30 30 30 29 28 30 31 32 33 33 33 33 34 33 32 31 30 27 26 27 26 24 23 22 21 20 21 20 20 19 20 21 22 22 19 18 18 18 18 19 20 20 21
11 12 10 7 5 11 17 20 24 26 28 29 30 31 33 33 33 34 35 35 36 38 40 40 41 41 40 40 42 42 42 42 42 41 41 39 36 34 35 35 33 32 32 32 31 31 29 28 29 31 32 33 34 33 34 34 33 31 30 29 28 28 28 27 26 26 25 23 22 22 21 20 21 23 25 24 22 20 20 20 20 20 21 22 23
12 12 13 13 9 6 12 17 21 24 26 28 29 30 31 32 33 34 35 35 35 37 39 39 38 38 40 42 43 44 44 44 43 44 43 41 39 37 36 36 35 33 34 34 33 33 32 29 27 28 30 32 33 33 34 34 33 31 30 29 28 28 29 29 28 28 27 27 25 24 22 20 20 22 24 24 23 22 22 21 22 22 22 23 24
13 14 13 12 11 9 9 12 17 21 24 27 29 30 31 32 33 35 35 35 35 35 37 37 35 37 40 43 45 45 45 45 45 45 45 43 42 40 38 38 36 35 36 37 35 34 34 32 29 27 28 29 30 32 34 34 32 31 29 28 28 28 28 27 27 27 28 28 28 26 25 23 22 22 24 25 24 23 23 23 23 24 24 25 25
14 16 15 13 12 12 12 13 14 17 22 26 28 29 31 31 31 32 33 35 35 34 35 37 36 37 40 43 45 45 46 46 46 45 45 44 44 43 41 39 36 36 38 38 36 35 35 35 33 29 28 28 27 29 33 35 33 31 29 28 28 28 28 26 24 24 25 26 27 27 27 27 26 25 26 27 27 26 26 26 26 26 26 26 27
15 17 18 18 16 15 15 15 15 16 20 25 28 29 30 29 30 31 34 35 36 35 35 37 37 37 39 42 44 45 46 46 45 45 45 45 44 44 43 40 36 36 38 39 37 34 35 36 35 32 30 28 28 28 31 33 33 31 29 28 28 29 29 29 27 25 26 27 27 28 28 28 28 28 28 28 28 28 27 27 28 28 28 28 29
17 19 21 21 19 19 18 17 17 18 19 23 27 29 30 30 31 32 34 35 36 36 36 37 38 37 39 41 43 45 46 46 46 46 45 45 44 44 44 42 37 33 34 36 37 35 35 36 36 35 33 31 30 29 30 33 33 31 28 28 28 29 31 32 31 30 30 30 30 30 30 30 29 29 29 30 29 28 27 27 27 27 28 27 27
20 21 22 21 20 21 21 20 19 19 20 22 27 30 31 31 31 32 34 35 36 37 37 39 40 39 39 40 42 44 44 44 45 46 45 44 44 43 44 44 40 34 31 33 35 35 34 35 36 37 36 34 32 32 33 35 34 32 30 28 29 30 32 33 33 33 33 33 33 33 32 32 31 31 31 31 30 30 29 28 28 28 28 27 25
21 22 23 21 20 22 23 22 21 20 21 23 26 29 32 33 32 33 34 35 37 38 38 40 40 39 39 40 39 40 42 42 43 46 45 44 44 44 44 44 43 38 32 30 31 32 32 33 35 36 38 36 34 33 35 36 36 35 32 30 30 31 32 33 33 34 34 34 34 34 33 33 33 32 32 32 32 32 31 30 29 28 27 27 25
19 20 20 19 21 24 25 24 24 22 21 23 26 29 32 34 34 34 35 37 39 40 40 41 41 39 39 39 37 38 42 43 43 45 45 44 44 44 44 44 43 41 35 30 28 29 29 30 31 33 36 36 34 33 34 36 36 36 34 32 31 32 33 33 34 34 35 35 35 35 35 35 34 33 33 34 33 33 32 30 29 27 26 25 22
19 19 18 18 21 25 26 25 24 22 21 23 26 29 33 36 36 35 37 38 40 42 41 40 39 38 38 39 39 40 42 42 43 44 43 43 43 42 42 43 43 40 36 32 29 27 28 28 28 29 31 34 35 34 35 36 36 36 35 33 32 32 32 33 34 34 35 35 36 36 36 36 35 34 34 34 34 33 32 30 29 28 26 24 21
20 20 18 18 22 24 25 24 22 20 20 22 26 30 34 37 37 36 38 39 40 39 38 37 37 37 37 38 39 39 40 40 41 41 41 41 41 40 40 42 41 37 34 32 31 29 27 27 27 27 27 30 33 34 35 36 36 36 34 32 31 32 31 32 32 33 34 34 34 36 36 36 36 36 35 34 34 33 32 31 30 29 28 27 26
17 16 14 18 22 23 23 22 20 18 19 22 26 31 35 36 37 38 38 37 36 36 36 37 37 37 36 36 37 37 38 38 39 39 40 40 39 38 38 39 37 34 32 32 32 30 28 26 26 26 26 27 28 31 32 33 34 34 32 30 30 30 30 30 30 32 33 33 32 32 32 34 35 35 34 33 32 31 31 31 31 31 30 29 29
17 15 14 19 24 23 22 20 17 17 18 21 26 31 34 36 38 38 35 32 33 35 36 36 37 36 35 35 36 36 36 36 37 38 39 39 38 37 37 38 36 32 30 29 29 29 28 26 25 25 25 25 25 26 29 30 31 30 30 29 28 28 28 29 29 30 31 30 29 28 28 29 30 30 31 31 29 28 30 31 30 30 29 29 28
19 15 14 19 23 22 20 18 16 16 17 21 25 29 33 35 36 36 32 29 32 35 35 36 36 36 35 34 35 35 35 34 35 36 37 38 38 37 36 36 36 32 29 27 27 28 28 26 25 24 24 24 24 25 27 29 29 29 29 29 27 26 27 28 29 29 28 26 25 24 24 24 25 26 27 27 26 26 28 29 29 28 28 28 28
18 15 13 18 21 20 17 16 14 15 17 20 23 27 31 34 33 32 30 29 31 33 35 35 36 35 35 34 33 33 33 32 33 35 36 36 36 35 35 35 35 33 30 27 27 27 26 26 25 24 24 23 23 24 25 27 27 26 28 29 28 27 28 28 30 30 28 26 25 24 24 24 24 24 24 24 24 25 26 27 27 27 28 28 27
17 16 13 15 16 14 13 12 10 12 17 19 21 25 29 30 29 29 29 29 30 32 33 33 33 34 34 33 32 31 31 30 31 32 34 35 35 34 34 34 33 31 30 28 27 26 25 25 25 25 24 23 23 23 24 25 25 24 24 25 27 29 29 29 29 30 30 30 29 28 27 26 25 25 25 25 25 25 26 26 26 26 26 25 25
18 17 13 11 9 8 7 8 6 7 14 18 20 23 26 27 27 28 29 29 29 31 32 31 30 31 32 31 31 30 29 29 29 29 29 32 33 32 32 33 32 30 29 28 28 27 26 26 25 24 24 23 23 23 23 24 27 26 24 24 25 28 30 31 30 30 29 29 30 30 30 30 29 28 28 28 29 28 26 26 26 26 25 22 21
18 16 12 7 6 5 3 4 5 4 8 14 18 19 22 25 27 28 28 28 29 30 30 29 28 29 29 30 29 29 28 27 27 26 25 26 29 29 30 32 32 30 29 29 28 28 28 26 25 23 23 23 24 24 24 26 28 26 25 25 25 26 30 32 32 31 29 27 28 30 30 31 32 32 32 32 31 29 28 27 26 25 23 21 22
18 16 14 6 3 5 3 3 5 4 5 10 15 17 20 23 26 28 29 29 29 29 28 26 26 26 27 28 27 27 26 24 24 26 27 27 29 29 28 28 28 28 28 28 27 27 27 25 24 23 24 24 26 27 26 27 27 25 23 24 24 25 28 30 29 28 27 28 29 30 30 32 33 33 34 32 27 24 24 23 22 21 20 19 23
18 16 16 11 5 4 5 4 4 4 5 7 10 14 18 22 24 26 28 29 28 27 26 26 25 25 25 27 26 25 25 24 24 29 32 31 31 31 29 28 28 29 30 30 28 26 26 25 25 26 27 26 26 26 26 26 27 25 23 23 22 22 23 26 26 25 26 28 30 30 31 31 29 27 26 25 21 20 20 18 19 21 21 19 23
19 18 17 13 12 9 6 6 5 6 6 5 7 11 15 19 22 25 27 28 27 26 25 26 25 23 24 25 25 24 25 25 25 29 33 33 32 32 31 30 30 29 30 31 30 28 27 27 27 29 29 27 27 27 26 26 26 26 25 24 22 21 20 21 23 25 27 29 28 25 24 23 22 21 20 19 20 22 22 20 18 20 20 20 19
Wind_Direction
186 188 188 186 186 183 182 182 181 182 181 180 180 180 179 181 180 180 180 183 192 194 187 186 185 186 184 182 188 186 183 186 182 181 180 186 204 207 195 197 201 195 202 203 196 201 162 160 232 143 93 68 81 83 58 52 68 75 92 107 106 101 109 129 135 134 133 126 127 121 106 103 102 102 109 111 108 106 93 84 104 118 119 152 156
187 188 189 188 187 185 184 183 182 182 181 181 182 182 181 183 185 184 183 185 193 198 195 191 190 190 189 186 187 191 194 192 190 189 182 195 216 212 195 202 204 196 203 203 200 213 184 185 229 178 144 145 91 86 52 62 72 81 104 109 110 113 110 132 142 130 129 133 134 131 118 114 105 103 114 128 120 107 107 85 81 105 106 113 141
190 189 190 190 188 186 185 184 184 183 182 182 183 184 184 184 188 192 191 190 195 201 200 197 195 194 192 190 187 190 199 198 194 197 188 192 225 225 202 204 209 203 207 210 211 217 213 210 222 217 212 157 79 88 35 80 96 113 112 92 107 115 111 135 144 130 129 138 140 143 146 147 136 133 137 141 140 108 104 106 73 99 111 107 123
193 191 191 191 189 188 186 185 184 183 183 183 183 185 186 187 193 198 199 197 199 203 204 201 200 197 193 192 191 191 198 199 194 199 196 188 212 228 216 210 211 210 211 215 217 218 222 221 216 225 239 35 78 169 218 87 102 116 116 109 119 121 115 130 140 132 132 135 143 155 158 157 154 162 164 146 151 121 101 123 95 121 131 91 113
194 194 194 192 191 189 187 185 184 184 185 185 185 186 189 192 199 204 203 202 204 207 207 205 204 203 199 192 191 192 192 196 194 195 199 193 198 221 225 217 213 214 213 214 218 219 221 220 219 223 233 247 189 184 96 87 101 104 112 112 101 106 114 126 138 137 140 142 157 184 140 120 95 134 143 153 180 144 128 175 120 144 201 337 110
196 198 197 194 192 189 186 186 185 186 187 187 187 188 190 195 203 207 207 206 207 210 211 210 209 210 208 201 197 197 194 196 198 195 199 201 198 208 224 226 220 214 214 215 216 221 222 219 220 216 218 232 217 189 181 136 132 125 108 110 105 113 125 133 139 142 152 149 151 157 136 91 48 69 87 125 194 196 153 176 131 140 212 271 101
198 200 199 197 194 189 187 187 187 187 188 187 188 189 190 196 205 209 209 209 208 211 214 213 214 215 215 213 210 209 207 206 209 201 198 207 204 203 213 224 226 217 214 219 217 220 224 222 221 214 210 225 228 211 189 143 142 143 136 157 151 135 133 135 140 143 148 149 144 151 168 134 94 92 62 112 173 216 115 167 145 138 205 219 170
197 200 201 200 194 190 189 189 189 188 187 187 189 190 190 196 206 210 211 211 210 212 214 214 216 217 218 218 218 218 216 215 220 214 201 203 205 203 205 215 229 221 211 219 221 220 224 223 223 216 209 214 224 226 193 171 206 179 161 171 154 135 134 134 144 150 142 152 164 169 188 198 148 152 119 131 169 153 142 157 143 112 272 190 166
197 200 202 200 196 193 190 189 189 189 188 189 189 190 190 194 205 211 212 213 213 214 215 215 216 218 219 220 220 221 219 215 221 223 213 204 203 203 200 207 228 227 214 218 220 218 223 222 222 219 214 212 213 215 204 210 217 196 168 165 147 141 142 137 151 159 151 153 173 178 171 155 156 159 151 156 272 152 136 138 135 113 145 141 117
195 201 202 200 198 195 190 188 188 189 190 190 189 189 189 192 203 212 213 214 215 216 217 217 216 218 219 221 221 222 221 213 210 219 221 217 213 212 209 208 219 226 219 220 221 218 220 220 221 220 216 213 209 202 203 215 217 195 175 177 168 156 156 151 154 156 154 153 168 178 166 153 160 176 185 170 153 223 204 151 138 59 111 125 67
194 201 203 201 201 197 190 187 188 188 189 189 189 189 189 191 202 212 215 215 216 218 219 218 218 219 220 221 222 223 224 219 210 208 217 225 226 224 225 222 220 221 219 222 223 220 218 217 218 218 216 214 211 205 203 208 214 207 195 188 184 178 170 167 166 168 170 162 164 177 169 163 166 186 221 183 137 187 268 279 335 16 52 83 328
196 203 205 204 203 198 190 188 187 187 188 189 189 190 190 191 200 211 214 216 217 219 220 220 220 221 221 222 224 225 225 225 221 215 216 229 233 230 230 229 225 219 216 220 222 220 219 216 213 215 214 216 216 211 204 200 203 210 215 203 193 192 184 178 181 187 191 173 167 185 183 180 186 188 207 189 170 206 259 284 321 360 333 300 321
197 202 206 207 203 196 190 187 186 187 187 189 189 190 191 191 198 209 214 216 217 219 220 221 221 222 223 223 225 227 227 228 228 224 222 230 236 233 229 229 229 224 215 216 217 216 219 217 212 215 215 216 217 213 207 205 200 200 213 214 204 197 192 194 192 187 201 194 177 192 201 201 202 199 206 200 198 212 218 254 290 317 293 296 314
194 199 202 207 205 196 190 186 186 187 188 189 189 190 191 190 196 208 214 216 217 218 220 221 222 222 223 224 225 227 228 227 228 226 222 227 233 234 230 226 229 230 221 217 216 211 215 218 214 215 219 216 216 214 211 213 207 201 209 211 207 209 200 199 203 197 208 210 193 197 205 212 216 205 212 217 215 228 237 258 282 295 290 293 298
186 194 195 203 206 198 190 187 186 188 188 189 189 189 191 190 196 207 213 215 216 218 219 220 221 222 223 223 225 227 227 226 228 227 222 223 228 231 230 223 222 229 226 220 218 213 213 219 215 214 220 218 216 216 213 215 214 209 211 208 205 214 211 204 209 209 217 219 210 206 202 208 227 221 220 233 240 250 265 269 272 283 287 295 300
179 187 191 201 208 201 193 188 187 188 187 189 189 189 190 191 196 206 212 215 216 217 218 219 220 221 222 223 224 226 227 226 227 227 224 223 225 227 230 227 218 218 221 219 220 220 219 223 220 215 218 219 216 217 215 215 217 214 216 215 208 213 215 209 211 214 220 225 220 216 213 209 221 227 228 241 247 244 248 250 252 261 270 283 297
179 182 191 200 206 204 196 190 189 189 188 189 190 190 191 191 196 205 211 214 216 216 217 218 219 220 221 222 223 224 225 225 224 226 225 223 225 226 228 230 223 212 212 214 216 222 225 227 226 220 219 218 216 216 216 216 218 216 218 220 214 213 217 213 212 216 220 225 227 228 230 224 220 225 227 234 241 241 243 248 251 254 256 261 272
180 179 190 197 201 204 198 192 191 190 189 190 191 191 192 193 197 204 210 213 215 216 216 217 218 219 220 220 221 222 223 223 221 223 224 220 224 227 225 227 225 215 208 208 212 220 225 226 225 224 223 221 218 216 217 215 217 220 219 222 219 215 221 221 216 217 220 221 222 226 233 235 233 235 235 238 248 257 264 259 254 258 261 264 265
183 180 190 194 197 203 199 195 194 192 192 191 191 191 192 193 197 203 210 214 215 214 215 217 217 218 219 220 220 220 221 222 218 217 220 217 219 225 223 220 222 217 208 206 213 222 224 221 222 224 223 223 221 217 218 217 216 220 222 224 225 221 222 227 223 219 221 224 223 221 224 228 233 236 234 235 246 260 273 266 253 256 266 271 270
189 182 188 188 192 204 205 199 195 193 193 192 190 190 191 194 196 199 204 207 210 212 214 216 217 217 218 219 219 220 220 221 219 216 217 217 216 219 220 217 215 214 209 208 215 221 223 222 221 219 216 220 223 219 219 220 216 218 223 223 227 228 224 227 230 225 222 227 230 228 228 229 232 236 236 233 237 251 264 262 254 257 269 279 277
195 183 184 186 191 202 210 207 200 195 193 192 191 191 191 193 195 196 198 201 205 209 212 215 216 216 218 219 219 220 220 219 220 219 217 216 216 216 217 215 211 210 208 210 216 218 221 224 223 217 212 213 222 222 219 221 219 217 221 222 224 229 230 229 232 231 226 229 233 232 233 236 237 241 242 239 237 249 260 262 259 260 263 269 274
198 186 183 189 195 201 208 211 206 197 193 192 192 193 192 192 193 194 196 200 202 203 208 215 216 215 217 219 219 220 220 218 218 218 217 216 216 216 216 214 209 208 207 210 217 218 218 222 221 218 214 210 216 222 219 221 223 220 222 225 223 228 235 237 239 238 231 230 234 234 235 239 242 243 245 242 238 243 253 258 262 265 259 254 260
199 191 184 190 202 203 202 207 207 198 194 193 193 193 193 192 192 192 195 199 199 199 204 212 215 215 216 217 217 218 219 217 214 213 214 214 214 215 215 213 208 208 209 210 216 218 217 220 219 217 218 213 214 223 221 219 224 225 224 226 226 230 237 241 246 249 245 238 237 238 237 238 241 244 246 246 240 239 244 247 251 256 257 254 254
200 197 189 190 200 203 197 201 204 199 195 194 194 194 194 193 192 192 195 197 196 194 197 207 213 214 214 214 215 215 214 213 209 208 210 210 209 210 213 214 210 208 210 212 214 214 216 222 221 218 221 220 218 225 225 221 225 230 229 228 228 232 238 241 245 250 250 245 241 240 239 237 236 240 245 246 244 242 243 246 249 252 257 261 263
200 201 198 190 191 196 195 197 200 198 196 195 195 195 195 194 193 194 194 194 193 191 193 202 208 209 210 212 212 210 209 209 207 205 207 207 207 208 211 215 214 209 209 212 214 213 215 222 224 222 224 226 225 228 228 224 224 229 233 233 231 233 239 242 245 245 245 244 242 240 241 239 235 237 243 246 245 245 246 249 252 254 258 266 272
195 199 205 196 188 190 193 195 197 198 196 195 195 196 196 196 195 195 194 191 191 191 192 197 200 201 205 209 210 207 206 208 207 204 204 205 206 207 209 213 215 211 207 210 216 217 217 222 226 225 226 229 229 229 230 227 223 224 232 235 233 234 239 241 243 244 243 243 244 242 241 240 237 236 240 245 246 248 251 253 254 257 259 263 272
185 194 208 201 190 193 197 196 196 197 197 196 196 196 197 197 196 195 193 191 190 190 191 194 195 196 200 206 208 208 207 206 206 204 203 204 205 205 207 210 213 211 207 207 213 219 220 224 228 227 227 229 230 230 230 229 225 221 226 232 232 232 237 241 243 243 242 242 243 244 243 241 241 242 243 245 247 250 253 256 259 263 266 270 276
161 185 215 200 187 191 195 195 194 196 199 198 197 197 198 198 197 195 194 192 190 189 190 192 194 194 200 205 207 208 208 206 205 204 202 202 204 204 205 207 209 209 208 207 209 216 223 226 228 228 228 230 231 231 231 231 229 223 222 228 230 228 230 237 242 244 242 239 238 241 244 243 244 247 250 249 245 246 251 256 261 266 269 273 278
159 177 200 198 188 187 189 192 195 197 199 199 198 197 198 198 198 197 195 193 191 190 189 191 193 196 202 206 205 205 208 207 205 204 202 201 203 203 203 205 208 209 209 208 208 212 220 226 227 228 228 229 231 233 232 232 231 228 225 226 231 233 231 230 234 240 241 238 236 238 238 241 245 250 256 257 249 244 249 254 260 266 269 272 276
29 39 195 203 199 195 194 194 197 200 201 200 199 197 197 198 197 197 197 194 191 191 190 190 194 199 202 203 202 202 206 207 206 205 204 201 201 202 202 204 207 208 209 209 208 209 215 222 224 226 227 228 230 233 235 234 233 232 230 228 231 237 239 235 233 236 238 237 239 241 240 240 243 245 251 257 257 254 255 257 259 263 268 272 275
357 357 342 314 243 208 202 200 202 203 203 203 201 200 199 199 198 197 196 195 192 192 191 191 194 197 197 199 201 202 205 206 206 206 206 202 200 201 203 203 205 208 210 210 208 207 211 216 219 222 225 227 229 232 235 237 235 234 233 232 233 238 243 244 242 241 242 241 241 243 244 244 244 246 251 257 260 260 259 261 262 264 268 272 274
332 332 327 323 315 253 217 211 210 209 208 206 204 203 201 200 199 198 196 195 193 193 193 192 192 192 194 200 203 203 206 208 207 209 210 206 202 200 202 203 202 205 211 213 211 209 209 211 215 218 221 225 229 231 235 238 237 235 235 235 236 239 242 246 247 246 246 247 247 247 244 243 244 249 256 260 259 258 260 263 266 267 268 270 271
313 314 318 321 317 300 270 241 225 218 215 212 207 205 203 201 200 198 195 195 195 194 193 193 191 190 194 202 205 204 206 208 209 211 213 211 206 203 203 204 202 204 212 217 217 215 212 211 213 215 218 222 225 230 236 239 239 238 236 235 237 240 241 241 243 245 247 250 252 251 248 245 243 246 255 261 262 261 262 265 267 269 269 269 271
303 307 314 316 311 302 292 276 253 234 225 219 213 209 206 204 201 198 196 196 195 194 193 192 192 192 194 201 205 205 207 209 210 211 212 213 212 209 208 207 204 206 214 220 221 219 219 218 216 214 216 219 222 228 236 240 241 239 237 236 237 238 237 235 234 237 242 247 251 253 252 251 249 250 255 261 264 266 268 270 271 273 273 273 274
305 304 307 307 306 301 293 283 272 257 239 225 217 213 208 204 201 199 197 197 195 194 193 192 192 192 194 200 204 205 207 209 210 211 212 214 215 214 213 211 207 209 216 222 223 221 222 224 221 217 216 219 222 226 234 240 242 241 238 236 234 233 234 234 232 232 236 243 249 252 254 254 254 254 256 259 263 266 269 273 275 277 278 279 279
311 308 305 302 300 299 298 290 279 268 253 232 219 214 209 203 201 199 197 196 195 194 193 192 192 192 195 199 204 206 207 209 211 212 212 214 215 215 216 215 211 209 214 221 223 221 222 225 226 223 220 222 224 226 231 238 244 243 237 232 230 230 232 234 236 237 240 244 249 252 254 256 256 256 257 259 262 264 266 269 272 275 277 278 279
308 303 299 298 298 298 297 293 282 269 256 237 220 213 208 203 201 199 197 195 195 194 194 193 192 192 195 198 202 206 208 209 212 213 213 213 215 215 216 217 215 210 210 217 222 222 222 225 228 228 226 225 226 228 232 238 243 244 239 232 229 229 232 235 238 240 243 247 250 252 254 256 257 257 258 260 262 264 265 266 267 269 271 271 271
307 302 297 296 300 299 294 291 286 272 254 238 223 211 205 202 200 198 196 194 195 195 194 194 193 192 195 198 201 206 209 210 212 214 214 213 214 215 216 217 218 214 211 213 219 221 222 224 228 231 232 230 229 232 237 240 243 244 242 237 233 231 232 235 238 241 244 247 251 254 255 255 256 257 259 262 263 264 266 267 267 268 268 267 267
306 302 300 304 305 299 292 289 284 272 253 238 224 211 203 200 198 196 195 194 195 195 194 195 194 192 194 198 201 206 212 213 215 216 215 214 214 215 216 217 219 217 213 212 215 218 219 221 224 229 235 236 234 234 239 242 243 244 244 242 239 237 236 236 238 241 244 247 250 253 255 256 257 258 259 262 264 265 267 268 268 268 266 264 263
310 298 294 305 305 296 291 288 280 267 251 236 223 209 202 200 198 196 195 194 196 196 194 194 193 190 194 200 205 210 213 215 217 217 215 214 214 214 215 217 219 218 215 214 215 217 219 221 222 224 231 238 239 237 239 243 245 245 245 244 243 242 241 240 240 241 244 248 250 252 254 256 256 257 259 261 263 265 266 266 266 264 262 260 258
317 301 292 302 302 293 289 286 276 262 246 231 218 207 202 199 197 196 197 197 197 195 192 191 191 190 194 201 206 212 214 216 218 218 214 213 214 213 215 218 218 217 215 215 215 217 219 221 223 223 225 232 239 240 240 243 246 247 246 245 244 244 244 243 243 244 245 246 249 252 254 256 256 256 257 258 260 261 262 262 262 260 258 257 255
315 300 292 303 302 292 287 283 272 256 239 223 212 206 201 199 197 198 199 197 194 191 190 190 191 191 193 197 201 207 212 214 216 218 214 213 214 213 215 218 217 213 213 215 215 216 218 221 223 225 223 224 233 241 242 243 246 248 248 246 244 244 244 244 244 246 246 246 246 249 252 255 257 258 258 257 258 258 258 259 260 260 259 258 256
321 308 302 305 301 291 287 282 267 247 231 217 210 206 201 198 198 199 199 195 191 190 188 189 191 191 191 194 198 205 210 211 213 216 215 214 213 212 214 218 216 211 209 212 212 213 216 218 220 223 224 222 225 234 241 244 245 246 247 246 243 242 242 242 241 243 245 246 245 244 247 250 255 257 257 258 257 255 255 257 258 257 256 254 253
328 318 308 301 295 289 285 279 262 243 227 215 210 205 199 198 199 199 196 192 190 189 187 189 192 191 189 191 197 205 210 210 212 215 215 214 213 212 212 215 216 212 205 205 208 211 213 216 218 220 222 223 221 226 237 244 246 246 247 245 242 238 237 238 238 237 238 241 240 239 240 244 248 252 255 256 253 249 249 251 251 250 249 249 249
334 327 310 295 292 285 275 270 258 237 220 211 207 202 197 197 198 196 194 192 190 188 187 189 191 189 188 190 195 203 208 206 207 211 212 212 212 211 210 213 215 211 205 203 206 210 211 213 216 217 219 221 220 222 233 243 246 246 246 245 241 235 232 233 235 233 232 231 231 233 234 236 239 245 249 250 247 243 241 242 243 243 244 245 247
345 337 311 293 296 285 262 263 264 231 211 206 204 200 198 197 195 193 193 192 191 189 188 188 188 186 187 189 192 197 201 199 199 204 208 209 209 207 208 211 210 206 204 204 204 206 209 210 213 215 216 218 218 219 227 239 244 244 243 243 239 234 229 229 231 231 229 226 225 228 231 233 234 238 243 246 245 240 237 239 240 241 242 245 247
353 343 313 285 300 305 261 252 260 218 200 203 204 200 198 195 192 192 193 191 190 190 188 186 185 184 186 188 188 191 193 193 193 197 202 205 206 205 205 207 206 201 201 203 203 204 207 209 211 214 214 214 216 217 219 230 238 239 238 238 234 230 226 224 224 225 225 226 226 227 228 231 234 236 240 246 246 240 236 237 239 241 241 241 243
1 354 331 287 274 301 284 221 217 192 183 194 198 198 198 195 191 192 191 189 188 189 187 185 183 182 183 184 186 188 189 188 190 193 195 199 202 202 203 206 206 202 201 203 204 204 206 207 209 211 211 211 214 215 215 222 231 234 232 232 231 226 222 221 221 221 223 225 227 229 229 231 233 235 239 243 243 239 236 236 237 238 237 234 236
9 5 352 343 235 244 257 203 193 187 175 183 190 196 199 197 194 192 188 186 187 187 186 184 181 181 183 183 183 186 187 185 187 190 193 196 198 199 200 203 205 204 202 202 203 205 207 208 207 210 212 212 214 216 216 220 227 230 228 229 230 225 220 221 223 224 224 225 227 229 230 230 231 233 235 237 237 237 236 234 232 232 231 231 236
20 18 4 17 77 164 210 197 170 173 179 180 183 190 192 191 191 192 189 188 188 187 185 183 181 181 183 183 183 186 186 184 186 192 195 197 197 198 198 200 205 208 207 204 204 205 207 207 209 213 216 215 215 218 219 221 225 229 230 232 233 227 222 223 224 223 222 223 226 229 230 228 228 228 229 229 229 232 232 229 229 230 228 228 237
17 21 12 22 56 89 136 154 140 149 164 162 160 170 179 182 185 188 190 190 189 185 184 185 184 183 184 183 182 184 185 183 188 198 200 198 200 200 198 199 205 210 209 207 206 207 208 208 210 215 218 216 217 221 223 223 224 227 230 233 234 229 224 222 221 219 219 220 222 226 227 224 222 223 223 220 221 228 231 229 227 229 229 229 235